Torna al catalogo

COSMOS 1275 DEB

AttivoPO
NORAD 17639·DEBRIS·🇷🇺 Russia

Lanciato Jun 4, 1981 da Plesetsk Cosmodrome

Loading…

Prossimi Passaggi (prossime 24 ore)

TLE

AggiornatoSource: Space-Track

Epoca: Sep 14, 2026, 04:16 UTC

1 17639U 81053LJ  26257.17822083  .00000918  00000-0  10620-2 0  9995
2 17639  82.9958  52.3656 0153747 287.2137 196.3101 13.63355448 43092

Traccia COSMOS 1275 DEB in tempo reale con AllMySat

Download on the App Store